This is the latest recevied weather packets stored in our database for station/object OK2JV-13. If no packets are shown the sender has not sent any weather packets the latest 10 day(s).
| Time | Temp. | Humidity | Pressure | Rain* | Wind** | Luminosity | Snow |
|---|---|---|---|---|---|---|---|
| 1787954038 | 18.33° C | 67% | 1011.1 hPa | - | - | - | - |
| 1787953434 | 18.33° C | 67% | 1010.9 hPa | - | - | - | - |
| 1787952833 | 18.33° C | 67% | 1010.9 hPa | - | - | - | - |
| 1787952227 | 18.89° C | 68% | 1010.4 hPa | - | - | - | - |
| 1787951623 | 19.44° C | 67% | 1011 hPa | - | - | - | - |
| 1787951019 | 20° C | 63% | 1011.1 hPa | - | - | - | - |
| 1787950415 | 20.56° C | 62% | 1011.7 hPa | - | - | - | - |
| 1787949811 | 21.67° C | 59% | 1012.2 hPa | - | - | - | - |
| 1787949205 | 21.67° C | 51% | 1012.6 hPa | - | - | - | - |
| 1787948601 | 22.22° C | 47% | 1012.6 hPa | - | - | - | - |
| 1787947997 | 22.22° C | 47% | 1012.5 hPa | - | - | - | - |
| 1787947393 | 22.22° C | 47% | 1012.5 hPa | - | - | - | - |
| 1787946789 | 22.22° C | 47% | 1012.8 hPa | - | - | - | - |
| 1787946184 | 22.22° C | 46% | 1012.8 hPa | - | - | - | - |
| 1787945580 | 22.22° C | 46% | 1013.1 hPa | - | - | - | - |
| 1787944976 | 22.22° C | 46% | 1013 hPa | - | - | - | - |
| 1787944372 | 22.22° C | 46% | 1012.8 hPa | - | - | - | - |
| 1787943769 | 22.22° C | 46% | 1012.6 hPa | - | - | - | - |
| 1787943092 | 22.22° C | 46% | 1012.6 hPa | - | - | - | - |
| 1787942488 | 22.22° C | 46% | 1012.5 hPa | - | - | - | - |
| 1787941884 | 22.78° C | 43% | 1012.6 hPa | - | - | - | - |
| 1787941280 | 22.78° C | 43% | 1012.8 hPa | - | - | - | - |
| 1787940676 | 22.78° C | 42% | 1012.5 hPa | - | - | - | - |
| 1787940072 | 22.78° C | 42% | 1012.6 hPa | - | - | - | - |
| 1787939468 | 23.33° C | 42% | 1012.4 hPa | - | - | - | - |
* Rain since midnight (hover to see other rain measurements)
** Current wind speed in m/s (hover to see current wind gust speed)